Theta_e
287 287 286 286 285 285 283 282 281 281 280 280 281 280 281 280 280 280 280 280 279 279 279 279 279 280 280 279 279 279 279 278 278 278 278 278 277 277 277 276 276 276
287 287 286 286 285 284 284 283 282 281 281 280 280 280 280 280 280 280 279 279 279 279 279 279 279 279 279 279 278 278 278 278 278 279 278 277 277 277 277 277 276 276
286 285 285 284 284 283 282 281 281 281 280 280 279 280 280 280 280 279 279 279 279 279 279 279 279 279 279 278 278 278 278 278 277 277 277 277 277 277 276 276 276 275
285 285 285 284 284 283 281 280 280 279 280 279 279 280 280 280 279 279 279 280 279 279 279 279 279 278 278 278 278 277 277 277 277 277 276 276 276 276 276 276 275 275
284 284 284 283 282 281 280 280 280 279 279 279 279 279 280 279 279 278 278 278 279 279 279 278 278 278 278 277 277 277 277 277 277 277 276 276 275 276 275 275 274 274
284 284 283 283 282 280 280 280 280 280 279 279 279 279 279 279 279 278 278 278 278 278 278 277 277 277 277 277 276 277 277 277 276 276 276 275 275 275 275 275 274 274
283 283 282 282 281 280 280 280 279 279 279 279 279 279 279 279 279 279 278 279 278 278 277 277 277 276 276 276 276 276 276 276 276 276 275 274 274 274 274 274 274 273
283 282 282 281 280 279 279 279 279 279 279 278 279 279 279 279 279 279 278 278 278 277 277 277 277 277 276 276 276 276 275 275 275 275 274 274 273 273 273 273 273 272
282 282 281 280 280 279 279 278 278 278 278 278 279 278 278 278 278 278 278 278 278 278 278 277 277 276 275 275 276 276 276 275 275 274 274 273 273 272 272 272 272 272
282 281 280 279 279 279 278 278 278 278 278 278 278 278 278 277 277 277 278 278 278 277 277 277 277 276 275 276 276 276 276 275 275 274 274 273 273 272 272 272 272 272
281 281 280 279 279 278 278 278 278 277 278 277 277 277 278 277 278 278 278 278 278 277 277 277 276 276 276 276 276 276 276 276 275 274 274 273 273 273 274 272 272 272
281 280 280 279 279 278 278 278 277 277 278 278 278 278 278 278 278 277 278 278 278 278 277 277 276 276 276 276 276 276 275 275 275 274 274 273 273 272 273 272 273 272
281 280 280 279 279 278 278 278 278 278 279 279 279 279 278 278 278 278 278 278 278 277 277 277 276 276 276 276 276 275 275 275 275 275 274 273 273 272 273 273 273 272
282 281 280 279 279 279 279 279 279 279 279 279 279 279 278 278 278 278 278 277 277 277 277 276 276 276 275 275 275 275 275 274 275 275 274 273 273 273 273 273 273 272
282 281 281 280 280 279 279 279 279 279 279 279 279 279 279 279 278 278 277 277 277 276 276 276 276 276 276 275 275 275 275 275 275 275 274 274 274 273 273 273 272 271
282 282 281 281 280 280 279 279 279 279 279 279 279 279 279 278 278 278 277 277 276 276 276 275 275 275 277 279 278 275 275 275 275 275 275 274 274 273 273 273 272 272
282 282 281 281 280 280 280 279 279 279 279 279 279 279 278 278 277 277 277 277 276 276 275 275 275 275 278 280 281 280 276 275 275 275 275 275 274 274 273 273 273 273
282 282 281 281 281 280 280 280 279 279 279 279 278 278 278 278 277 277 277 277 276 276 275 275 275 278 280 281 282 282 280 276 275 275 275 275 274 274 274 273 273 272
282 282 281 281 281 280 280 279 279 278 278 278 278 278 278 277 277 277 277 276 276 276 275 275 275 279 281 282 283 283 283 278 275 275 275 275 275 274 274 273 273 272
282 282 282 281 281 281 280 279 279 278 278 278 278 278 277 277 277 277 277 276 276 276 275 275 275 278 281 282 283 284 284 282 275 276 275 275 275 274 274 274 273 272
282 282 281 281 281 280 279 279 278 278 278 278 278 278 277 277 277 276 276 276 276 276 275 275 275 279 281 283 284 284 285 284 277 275 275 275 275 274 274 274 273 273
282 282 281 281 281 280 279 279 278 278 278 278 278 278 277 277 277 277 277 276 276 276 275 275 276 280 281 282 284 285 286 283 279 275 275 274 274 274 274 274 273 273
281 281 281 280 280 279 279 278 278 278 278 278 277 277 277 277 276 277 277 277 276 276 275 276 276 279 281 282 283 285 285 283 280 276 275 274 273 274 273 273 273 272
280 281 281 281 280 279 279 279 279 279 278 278 277 277 277 277 277 277 277 277 277 276 276 276 276 278 281 282 283 284 284 282 281 277 276 274 273 273 272 272 272 274
281 281 281 280 279 280 279 279 278 278 278 278 278 278 278 278 277 277 277 277 276 277 278 276 276 277 280 281 283 283 284 283 281 277 276 275 274 273 273 272 271 273
281 281 280 280 280 280 279 279 279 279 278 278 278 278 278 278 277 277 277 277 276 276 276 276 276 275 276 281 282 283 284 282 280 277 276 276 276 275 274 273 273 272
Wind_Speed
8 9 10 9 9 10 12 10 9 10 8 7 8 8 8 6 6 6 5 5 5 7 6 7 7 7 7 7 7 7 7 8 6 5 6 8 7 9 8 7 5 6
9 9 8 8 7 7 8 10 12 11 10 8 6 7 5 6 5 5 6 6 5 6 6 6 6 7 7 7 7 8 7 7 7 3 7 8 7 7 7 7 7 5
9 9 9 10 10 10 10 7 7 8 9 7 6 6 6 5 7 5 5 6 7 6 6 6 6 6 7 7 6 7 7 7 7 4 6 7 6 7 6 6 5 5
10 10 10 10 9 11 9 8 7 6 6 7 7 7 6 6 6 6 5 5 6 6 5 5 6 6 6 6 7 6 6 6 6 7 8 6 5 6 6 5 5 4
11 10 8 8 7 8 8 9 10 8 8 8 7 6 7 7 7 6 6 5 6 6 6 6 5 6 6 6 6 8 6 7 6 7 8 7 5 6 5 5 6 6
9 9 10 10 9 9 9 8 9 9 9 8 9 7 6 7 7 7 7 7 6 7 6 5 6 5 6 6 6 7 8 8 7 9 9 8 6 5 5 5 5 6
10 9 9 7 8 8 9 8 7 7 8 8 7 7 8 8 7 7 7 7 7 6 7 7 7 7 5 6 6 7 6 8 8 9 10 7 7 6 4 4 4 5
10 9 10 9 9 8 9 8 7 8 7 8 8 7 7 8 7 6 5 6 6 6 6 6 6 6 6 6 7 8 7 6 8 9 8 7 6 6 5 4 4 5
10 10 9 10 11 9 9 8 7 6 6 9 8 7 6 6 6 6 5 5 5 5 5 5 5 5 4 5 6 8 8 7 7 8 9 9 8 7 6 5 5 5
11 9 11 10 11 9 9 7 7 6 6 7 7 7 8 5 5 5 5 5 5 5 5 5 5 4 4 4 6 6 7 8 8 7 7 7 8 8 8 7 8 7
11 10 11 11 10 9 10 8 8 7 6 7 8 7 7 7 6 5 6 6 7 7 7 6 6 5 6 5 4 3 5 7 7 7 7 7 7 8 8 8 8 9
12 11 12 12 11 10 10 9 8 8 8 7 8 9 8 7 8 7 7 8 7 7 6 6 6 5 6 5 4 4 4 4 5 6 6 6 5 6 7 7 8 8
12 12 10 10 10 9 8 9 9 9 9 9 8 9 9 9 8 8 7 7 7 6 7 7 6 5 5 4 4 4 5 6 6 6 5 5 5 6 6 7 7 7
12 10 10 10 9 8 9 9 9 9 9 8 8 9 10 10 10 10 7 6 6 6 5 5 5 5 5 5 5 5 5 6 6 7 7 5 6 6 7 7 7 7
9 9 8 9 10 9 10 10 9 9 8 8 8 8 8 8 8 8 8 7 5 6 6 5 6 6 6 6 6 6 6 7 7 7 8 8 7 7 6 7 6 7
10 9 10 10 10 11 10 10 9 9 9 9 9 8 8 8 8 7 7 8 7 6 6 6 6 5 6 10 8 6 7 6 6 7 7 9 9 7 7 8 8 7
10 10 10 10 10 10 8 10 10 9 9 9 8 9 9 8 8 9 8 8 8 8 8 7 6 5 9 11 12 13 7 7 7 7 7 8 7 8 9 10 9 7
10 11 11 11 10 10 10 9 9 9 9 9 9 9 8 8 9 9 8 8 8 7 7 7 6 7 11 12 13 14 12 7 6 6 6 7 9 9 8 7 8 7
10 11 11 10 10 10 9 10 10 10 9 9 10 8 7 9 10 9 9 8 7 8 7 6 6 10 13 14 14 15 16 11 5 6 7 8 10 10 9 8 7 7
9 8 9 8 8 8 8 9 9 10 8 6 6 6 8 8 7 8 7 8 8 7 7 6 7 9 13 15 15 16 17 14 7 8 8 8 10 11 9 10 10 9
9 10 10 10 10 9 9 9 9 8 8 8 8 8 9 10 9 8 7 7 6 6 6 6 6 11 14 16 16 17 17 15 7 6 6 7 9 10 10 11 10 9
10 9 9 8 8 8 8 8 8 9 10 7 6 5 3 4 4 5 7 7 6 6 5 7 8 13 15 16 17 17 19 10 7 8 9 8 8 10 11 9 7 9
10 10 10 9 9 10 9 9 9 8 7 7 8 7 6 6 6 6 6 7 7 7 8 9 8 11 16 17 17 19 14 9 8 8 8 9 10 9 8 8 8 8
8 8 9 8 9 10 10 7 5 4 6 6 8 7 7 6 6 5 4 6 7 8 10 10 10 10 16 17 18 19 15 10 8 8 9 9 8 8 7 7 8 12
8 8 9 9 9 8 8 8 8 7 6 5 5 5 6 5 5 5 5 5 7 8 7 10 9 8 14 17 18 19 15 9 9 8 9 9 8 10 8 7 8 10
7 8 8 9 9 8 7 8 6 7 7 7 6 5 5 5 5 6 8 7 7 8 8 9 10 9 9 16 17 18 19 11 7 8 11 12 10 9 9 9 9 9
Wind_Direction
172 178 167 171 173 169 166 166 166 162 168 166 171 172 172 160 158 151 139 133 141 138 142 139 136 132 128 123 119 114 114 117 116 131 130 124 122 122 119 121 108 119
179 180 169 167 166 168 173 172 165 167 168 172 171 154 150 147 159 145 145 144 142 141 140 140 140 136 132 127 128 120 118 122 121 140 126 114 115 108 113 120 121 122
173 175 172 172 172 173 170 167 167 165 162 162 148 152 150 157 147 144 147 150 145 144 145 142 136 132 127 126 127 122 127 130 127 127 109 110 109 112 119 124 125 135
177 179 175 176 173 171 165 159 162 156 142 146 166 161 157 152 145 146 153 151 144 145 143 142 138 129 127 129 123 118 125 120 129 124 108 98 100 115 125 124 125 121
175 175 177 173 170 164 162 167 167 165 165 157 141 151 153 151 149 153 153 150 149 146 146 143 134 133 133 131 133 130 134 131 134 127 121 120 122 126 137 137 140 134
179 178 173 171 167 164 170 177 173 165 161 156 164 155 157 151 154 160 158 155 157 152 148 144 142 139 143 141 141 143 146 141 145 132 128 135 136 133 139 144 141 140
175 171 171 165 159 167 172 175 171 169 168 157 142 163 155 158 164 164 161 160 156 157 156 155 151 152 155 151 148 150 156 147 143 137 133 136 137 139 136 140 147 146
177 173 168 165 167 170 177 175 170 171 161 146 164 160 159 161 163 159 155 156 156 157 157 153 156 160 163 161 157 154 155 154 143 135 133 138 140 146 147 148 145 152
173 174 169 172 171 174 177 170 168 164 161 161 162 157 153 158 156 149 152 152 154 154 154 156 164 167 173 172 168 163 159 155 146 141 144 151 155 159 159 148 155 169
180 175 173 175 177 175 171 165 164 164 160 158 154 148 153 146 139 145 145 155 152 156 162 163 166 173 180 191 180 174 165 156 149 147 151 161 161 161 162 166 173 172
182 177 179 179 177 169 171 163 163 159 161 160 152 153 150 143 139 142 156 162 170 172 173 174 177 173 180 186 188 189 170 156 154 153 159 165 168 167 167 171 178 187
183 181 185 181 174 172 170 163 160 163 164 162 163 156 150 153 151 159 170 174 175 176 172 170 171 175 185 189 177 168 162 155 152 155 162 166 165 169 175 183 187 190
186 185 180 177 176 169 159 161 165 166 167 167 164 159 157 158 162 165 176 176 176 169 175 174 172 174 180 179 173 179 174 166 157 158 162 167 173 178 186 192 199 194
186 177 176 176 168 161 164 165 165 166 169 162 159 163 166 169 169 175 173 172 173 170 165 161 167 171 178 180 183 185 182 175 167 168 170 175 179 183 176 192 203 205
172 172 171 165 166 163 163 166 166 166 165 165 170 169 171 170 165 164 161 165 162 163 163 167 178 187 183 183 181 189 192 184 176 176 156 157 156 170 183 200 211 213
169 169 171 168 165 168 170 164 164 167 169 170 176 176 167 161 156 158 165 171 166 167 172 179 191 186 183 189 192 189 192 188 177 178 174 151 174 182 204 209 216 214
167 170 167 171 170 167 163 164 168 168 173 176 177 174 167 160 157 164 174 174 176 177 181 188 189 186 188 200 203 203 196 189 184 187 177 173 198 200 211 213 213 220
167 166 168 171 170 172 169 167 163 169 177 180 178 172 168 159 165 177 175 178 180 178 185 188 189 186 196 204 207 205 199 193 189 189 187 192 196 207 216 212 215 215
168 170 172 172 175 170 168 166 168 173 178 180 185 175 156 167 178 175 184 178 175 182 188 185 194 195 200 206 209 209 204 195 200 198 195 203 199 213 214 214 210 211
168 165 167 167 165 166 165 170 169 177 175 172 163 161 173 177 177 181 173 177 182 184 187 193 203 198 205 209 211 213 211 203 205 205 211 212 208 210 213 214 210 206
167 170 170 168 168 167 167 168 169 164 168 175 176 183 181 183 180 175 178 177 179 185 191 202 209 206 210 212 214 215 216 212 204 211 221 227 222 211 217 216 210 207
166 170 169 166 162 158 163 170 172 175 171 162 160 168 165 146 162 166 176 181 181 178 192 217 221 211 213 215 217 218 218 217 203 209 223 230 233 226 224 223 212 207
169 166 164 158 159 159 166 170 168 175 168 155 163 167 170 181 181 189 184 176 180 187 204 224 225 214 215 217 218 220 218 219 209 213 224 229 235 238 240 234 226 216
165 163 159 154 158 173 177 174 163 148 157 157 165 167 178 184 185 189 188 188 193 203 211 221 228 213 215 219 219 219 218 219 216 212 227 230 240 240 231 232 230 224
155 153 156 164 169 168 161 161 165 167 158 155 166 171 182 166 174 190 207 209 209 216 211 221 234 221 218 222 222 221 220 221 217 214 227 232 231 242 233 225 236 231
149 155 159 163 169 162 161 165 156 149 160 167 173 177 179 179 187 202 214 222 211 215 222 223 229 229 220 226 224 224 222 221 216 209 228 232 230 237 243 236 228 231